Powrót do katalogu

SOLRAD 1

GREB

AktywnyNaukaLEO
NORAD 46·PAYLOAD·🇺🇸 United States

Wystrzelony Jun 22, 1960 z Cape Canaveral Space Force Station

Loading…

Następne Przeloty (najbliższe 24 godziny)

TLE

ŚwieżeSource: Space-Track

Epoka: Sep 14, 2026, 14:52 UTC

1 00046U 60007B   26257.62010077  .00000739  00000-0  15234-3 0  9995
2 00046  66.6903 344.3847 0200257 227.6067 130.7949 14.54979999470012

Śledź SOLRAD 1 w czasie rzeczywistym z AllMySat

Download on the App Store